星链-3097 (STARLINK-3097 )

导读 | 豆包AI

STARLINK-3097是美国太空探索技术公司SpaceX星链星座中的一员,于2021年11月13日发射入轨。它属于星链一代组网卫星,采用平板设计与氪霍尔推进器,配备自主避撞能力,运行在低地球轨道,为全球提供高速宽带互联网接入服务,设计使用寿命约5-7年,退役后会主动离轨在大气层焚毁,目前已在轨正常服务超4年,是星链全球通信网络的重要组成节点。

Basic Information
目录编号:
49448
目录名称:
STARLINK-3097
国际标识:
2021-104AS
轨道中心:
EARTH
卫星名称:
星链-3097
卫星全名:
星链-3097 (STARLINK-3097 )
卫星状态:
已陨落 最后检测时间 2024-05-05
发射日期:
2021-11-13 UTC
国别 :
美国 (US)
星等 :
--
Orbit Information
数据来源 国际轨道数据
星历时间: 2024-05-05T11:08:16+0800
轨道信息已过期678天
半长轴: 6535.017km
偏心率: 0.0008246
轨道倾角: 53.204°
近地点辐角 243.471°
升交点赤经 334.530°
平近点角 179.744°
近地点: 151.493km
远地点: 162.271km
周期: 87.625分钟
每日圈数: 16.4336
Detailed Information
固有亮度:
5
最大亮度:
2.5
卫星平台:
Starlink v1.5
覆盖范围:
全球
运营商:
太空探索技术公司
运营商所在国:
美国
制造商(研发单位):
太空探索技术公司
制造商所在国:
美国
使用方式:
暂无
Satellite Introduction
星链(Starlink)计划是由太空探索技术公司(SpaceX)提出的一个巨型低轨卫星互联网星座项目,计划在2019年至2024年间在太空搭建由约1.2万颗卫星组成的“星链”网络,其中1584颗将部署在地球上空550千米处的近地轨道,并从2020年开始工作。该卫星已陨落。